This is the latest recevied weather packets stored in our database for station/object W0AVQ. If no packets are shown the sender has not sent any weather packets the latest 10 day(s).
| Time | Temp. | Humidity | Pressure | Rain* | Wind** | Luminosity | Snow |
|---|---|---|---|---|---|---|---|
| 1777600156 | 14.44° C | 79% | 1017.3 hPa | 0 mm | - | 0 W/m² | - |
| 1777599852 | 14.44° C | 77% | 1017.4 hPa | 0 mm | - | 0 W/m² | - |
| 1777599548 | 13.89° C | 74% | 1017.3 hPa | 0 mm | - | 0 W/m² | - |
| 1777599245 | 14.44° C | 76% | 1017.4 hPa | 0 mm | - | 0 W/m² | - |
| 1777598941 | 14.44° C | 76% | 1017.4 hPa | 0 mm | - | 0 W/m² | - |
| 1777598639 | 14.44° C | 76% | 1017.1 hPa | 0 mm | - | 0 W/m² | - |
| 1777598334 | 14.44° C | 74% | 1017.2 hPa | 0 mm | - | 0 W/m² | - |
| 1777598032 | 14.44° C | 74% | 1017.2 hPa | 0 mm | - | 0 W/m² | - |
| 1777597731 | 14.44° C | 71% | 1017.2 hPa | 0 mm | - | 0 W/m² | - |
| 1777597428 | 14.44° C | 70% | 1017.1 hPa | 0 mm | - | 0 W/m² | - |
| 1777597123 | 15° C | 69% | 1017.2 hPa | 0 mm | - | 0 W/m² | - |
| 1777596819 | 15° C | 68% | 1017.1 hPa | 0 mm | - | 0 W/m² | - |
| 1777596515 | 15° C | 66% | 1017.2 hPa | 0 mm | - | 0 W/m² | - |
| 1777596213 | 15.56° C | 66% | 1017.2 hPa | 0 mm | - | 1 W/m² | - |
| 1777595910 | 15.56° C | 65% | 1016.9 hPa | 0 mm | - | 2 W/m² | - |
| 1777595604 | 16.11° C | 64% | 1016.6 hPa | 0 mm | - | 4 W/m² | - |
| 1777595300 | 16.67° C | 63% | 1016.8 hPa | 0 mm | - | 7 W/m² | - |
| 1777594996 | 16.67° C | 58% | 1016.8 hPa | 0 mm | - | 10 W/m² | - |
| 1777594694 | 16.67° C | 55% | 1016.6 hPa | 0 mm | - | 12 W/m² | - |
| 1777594390 | 16.67° C | 55% | 1016.7 hPa | 0 mm | - | 15 W/m² | - |
| 1777594085 | 17.22° C | 54% | 1016.9 hPa | 0 mm | - | 19 W/m² | - |
| 1777593782 | 17.22° C | 58% | 1016.7 hPa | 0 mm | - | 23 W/m² | - |
| 1777593478 | 17.22° C | 56% | 1016.6 hPa | 0 mm | - | 29 W/m² | - |
| 1777593176 | 17.78° C | 58% | 1016.7 hPa | 0 mm | - | 30 W/m² | - |
| 1777592876 | 17.78° C | 57% | 1016.9 hPa | 0 mm | - | 33 W/m² | - |
* Rain latest hour (hover to see other rain measurements)
** Current wind speed in m/s (hover to see current wind gust speed)